JST516 YMML-YSSY

Flight info

Callsign JST516
Flight time 1h 8m
Altitude 39000
Route DOSEL2/34 DOSEL Y59 RIVET
Aircraft A20N/M-SDE2E3FGHIRWXY/LB1

Departure

Time 2026-05-04 09:46
Airport Melbourne Airport (YMML)

Arrival

Time 2026-05-04 10:54
Airport Sydney Kingsford Smith International Airport (YSSY)
Time Latitude Longitude Altitude Speed Heading
2026-05-04 09:14 -37.67654 144.84710 378 ft 0 kts 351°
2026-05-04 09:31 -37.67663 144.84711 378 ft 2 kts 351°
2026-05-04 09:31 -37.67679 144.84715 377 ft 2 kts 351°
2026-05-04 09:31 -37.67695 144.84718 376 ft 2 kts 349°
2026-05-04 09:32 -37.67710 144.84724 376 ft 2 kts 320°
2026-05-04 09:32 -37.67721 144.84741 375 ft 2 kts 296°
2026-05-04 09:34 -37.67728 144.84778 375 ft 0 kts 266°
2026-05-04 09:35 -37.67735 144.84709 374 ft 12 kts 262°
2026-05-04 09:35 -37.67766 144.84619 372 ft 11 kts 216°
2026-05-04 09:37 -37.67858 144.84251 369 ft 0 kts 262°
2026-05-04 09:38 -37.67864 144.84194 365 ft 8 kts 262°
2026-05-04 09:39 -37.67865 144.84183 362 ft 0 kts 262°
2026-05-04 09:42 -37.67874 144.84109 364 ft 0 kts 262°
2026-05-04 09:44 -37.67874 144.84106 364 ft 3 kts 262°
2026-05-04 09:44 -37.67883 144.84028 363 ft 12 kts 262°
2026-05-04 09:46 -37.63519 144.83352 2263 ft 172 kts 350°
2026-05-04 09:46 -37.62228 144.83285 2874 ft 199 kts 351°
2026-05-04 09:46 -37.60727 144.83236 3484 ft 230 kts 352°
2026-05-04 09:47 -37.59064 144.83242 4222 ft 252 kts 356°
2026-05-04 09:47 -37.57289 144.83719 4979 ft 266 kts 13°
2026-05-04 09:49 -37.45486 144.91535 9940 ft 295 kts 25°
2026-05-04 09:49 -37.43716 144.92983 10652 ft 313 kts 32°
2026-05-04 09:49 -37.42113 144.94939 11318 ft 333 kts 45°
2026-05-04 09:51 -37.33396 145.09845 16921 ft 367 kts 51°
2026-05-04 09:51 -37.31902 145.12478 17818 ft 371 kts 51°
2026-05-04 09:51 -37.30409 145.15110 18633 ft 376 kts 51°
2026-05-04 09:51 -37.28882 145.17800 19419 ft 379 kts 50°
2026-05-04 09:52 -37.27337 145.20520 20206 ft 383 kts 50°
2026-05-04 09:52 -37.25784 145.23252 20994 ft 386 kts 50°
2026-05-04 09:52 -37.24229 145.25985 21755 ft 390 kts 50°
2026-05-04 09:52 -37.22639 145.28776 22508 ft 393 kts 50°
2026-05-04 09:53 -37.21035 145.31591 23229 ft 396 kts 50°
2026-05-04 09:53 -37.19436 145.34395 23870 ft 400 kts 50°
2026-05-04 09:53 -37.17802 145.37258 24408 ft 404 kts 49°
2026-05-04 09:53 -37.16169 145.40115 24931 ft 408 kts 49°
2026-05-04 09:54 -37.14497 145.43036 25448 ft 412 kts 48°
2026-05-04 09:54 -37.12833 145.45937 25924 ft 417 kts 47°
2026-05-04 09:54 -37.11124 145.48914 26427 ft 420 kts 47°
2026-05-04 09:54 -37.09422 145.51878 26934 ft 423 kts 47°
2026-05-04 09:55 -37.07686 145.54899 27418 ft 427 kts 46°
2026-05-04 09:55 -37.05960 145.57900 27913 ft 430 kts 45°
2026-05-04 09:55 -37.04197 145.60959 28374 ft 433 kts 45°
2026-05-04 09:55 -37.02434 145.64019 28840 ft 436 kts 45°
2026-05-04 09:56 -37.00641 145.67124 29229 ft 440 kts 44°
2026-05-04 09:56 -36.98848 145.70226 29634 ft 444 kts 44°
2026-05-04 09:56 -36.97025 145.73381 30073 ft 448 kts 44°
2026-05-04 09:56 -36.95204 145.76533 30414 ft 451 kts 44°
2026-05-04 09:57 -36.93346 145.79743 30716 ft 454 kts 44°
2026-05-04 09:57 -36.91507 145.82913 31101 ft 455 kts 44°
2026-05-04 09:57 -36.89630 145.86147 31440 ft 458 kts 44°
2026-05-04 09:57 -36.87767 145.89363 31814 ft 460 kts 44°
2026-05-04 09:58 -36.85880 145.92618 32198 ft 461 kts 44°
2026-05-04 09:58 -36.84018 145.95825 32625 ft 461 kts 44°
2026-05-04 09:58 -36.82140 145.99063 33055 ft 461 kts 45°
2026-05-04 10:00 -36.68952 146.21638 35493 ft 461 kts 45°
2026-05-04 10:00 -36.67068 146.24847 35800 ft 461 kts 45°
2026-05-04 10:02 -36.53740 146.47481 37578 ft 465 kts 46°
2026-05-04 10:04 -36.40184 146.70350 38961 ft 473 kts 46°
2026-05-04 10:04 -36.36277 146.76914 39047 ft 477 kts 46°
2026-05-04 10:05 -36.32266 146.83628 39052 ft 487 kts 46°
2026-05-04 10:05 -36.28195 146.90431 39050 ft 497 kts 47°
2026-05-04 10:06 -36.24048 146.97358 39048 ft 502 kts 47°
2026-05-04 10:06 -36.19891 147.04298 39051 ft 501 kts 47°
2026-05-04 10:08 -36.05402 147.28344 39060 ft 497 kts 46°
2026-05-04 10:08 -36.01248 147.35199 39065 ft 498 kts 46°
2026-05-04 10:09 -35.97082 147.42066 39070 ft 497 kts 46°
2026-05-04 10:09 -35.92949 147.48866 39072 ft 497 kts 46°
2026-05-04 10:10 -35.88813 147.55661 39077 ft 497 kts 46°
2026-05-04 10:10 -35.84662 147.62457 39082 ft 497 kts 46°
2026-05-04 10:11 -35.80476 147.69294 39081 ft 497 kts 46°
2026-05-04 10:11 -35.76339 147.76044 39088 ft 498 kts 45°
2026-05-04 10:12 -35.72164 147.82842 39087 ft 499 kts 45°
2026-05-04 10:12 -35.67962 147.89673 39091 ft 499 kts 45°
2026-05-04 10:13 -35.63764 147.96485 39088 ft 499 kts 45°
2026-05-04 10:13 -35.59596 148.03233 39091 ft 499 kts 45°
2026-05-04 10:14 -35.55381 148.10043 39094 ft 499 kts 45°
2026-05-04 10:16 -35.38592 148.37040 39098 ft 498 kts 45°
2026-05-04 10:16 -35.34363 148.43804 39096 ft 498 kts 45°
2026-05-04 10:17 -35.30155 148.50525 39097 ft 498 kts 45°
2026-05-04 10:19 -35.13303 148.77306 39089 ft 497 kts 45°
2026-05-04 10:19 -35.09095 148.83972 39099 ft 495 kts 45°
2026-05-04 10:20 -35.05584 148.89519 39079 ft 495 kts 44°
2026-05-04 10:20 -35.01357 148.96178 39094 ft 495 kts 44°
2026-05-04 10:21 -34.97156 149.02787 38964 ft 491 kts 44°
2026-05-04 10:21 -34.95066 149.06073 38252 ft 492 kts 44°
2026-05-04 10:21 -34.92980 149.09347 37634 ft 491 kts 44°
2026-05-04 10:22 -34.88790 149.15917 36435 ft 487 kts 43°
2026-05-04 10:22 -34.86725 149.19149 35818 ft 486 kts 43°
2026-05-04 10:22 -34.84636 149.22414 35136 ft 487 kts 43°
2026-05-04 10:23 -34.82564 149.25648 34446 ft 489 kts 43°
2026-05-04 10:23 -34.80473 149.28910 33901 ft 486 kts 43°
2026-05-04 10:25 -34.67967 149.52645 30164 ft 472 kts 54°
2026-05-04 10:25 -34.66469 149.56166 29582 ft 467 kts 54°
2026-05-04 10:25 -34.64975 149.59659 29067 ft 461 kts 53°
2026-05-04 10:25 -34.63495 149.63091 28533 ft 455 kts 54°
2026-05-04 10:26 -34.62041 149.66435 28035 ft 449 kts 53°
2026-05-04 10:26 -34.60583 149.69772 27583 ft 442 kts 53°
2026-05-04 10:26 -34.59143 149.73052 27031 ft 438 kts 53°
2026-05-04 10:26 -34.57730 149.76267 26502 ft 428 kts 53°
2026-05-04 10:27 -34.56351 149.79416 26018 ft 415 kts 53°
2026-05-04 10:27 -34.55026 149.82438 25546 ft 405 kts 52°
2026-05-04 10:27 -34.53701 149.85445 25073 ft 401 kts 52°
2026-05-04 10:27 -34.52391 149.88395 24609 ft 399 kts 52°
2026-05-04 10:28 -34.51072 149.91364 24147 ft 396 kts 52°
2026-05-04 10:28 -34.49779 149.94275 23689 ft 395 kts 52°
2026-05-04 10:28 -34.48468 149.97234 23130 ft 393 kts 53°
2026-05-04 10:28 -34.47187 150.00122 22669 ft 389 kts 53°
2026-05-04 10:29 -34.45910 150.03006 22219 ft 385 kts 53°
2026-05-04 10:29 -34.44662 150.05825 21760 ft 381 kts 53°
2026-05-04 10:29 -34.43407 150.08654 21297 ft 378 kts 53°
2026-05-04 10:29 -34.42164 150.11448 20849 ft 373 kts 53°
2026-05-04 10:30 -34.40947 150.14184 20407 ft 370 kts 53°
2026-05-04 10:30 -34.39727 150.16932 19955 ft 367 kts 54°
2026-05-04 10:30 -34.38535 150.19611 19501 ft 364 kts 54°
2026-05-04 10:30 -34.37336 150.22303 19051 ft 361 kts 54°
2026-05-04 10:31 -34.36153 150.24958 18619 ft 358 kts 54°
2026-05-04 10:31 -34.34966 150.27619 18161 ft 355 kts 54°
2026-05-04 10:32 -34.28161 150.42851 15612 ft 333 kts 54°
2026-05-04 10:33 -34.27075 150.45280 15219 ft 329 kts 54°
2026-05-04 10:33 -34.25989 150.47709 14807 ft 326 kts 55°
2026-05-04 10:33 -34.24922 150.50095 14404 ft 323 kts 55°
2026-05-04 10:33 -34.23849 150.52489 14007 ft 321 kts 55°
2026-05-04 10:34 -34.22785 150.54863 13591 ft 318 kts 55°
2026-05-04 10:34 -34.21749 150.57171 13204 ft 315 kts 55°
2026-05-04 10:34 -34.20704 150.59501 12826 ft 313 kts 55°
2026-05-04 10:34 -34.19664 150.61818 12428 ft 311 kts 55°
2026-05-04 10:35 -34.18645 150.64084 12065 ft 309 kts 55°
2026-05-04 10:35 -34.17614 150.66376 11658 ft 308 kts 55°
2026-05-04 10:35 -34.16605 150.68625 11274 ft 306 kts 56°
2026-05-04 10:35 -34.15595 150.70870 10896 ft 305 kts 56°
2026-05-04 10:36 -34.14579 150.73127 10497 ft 304 kts 56°
2026-05-04 10:36 -34.13565 150.75377 10099 ft 302 kts 55°
2026-05-04 10:36 -34.12580 150.77565 9854 ft 294 kts 55°
2026-05-04 10:36 -34.11610 150.79721 9491 ft 290 kts 55°
2026-05-04 10:37 -34.10658 150.81830 9136 ft 288 kts 55°
2026-05-04 10:37 -34.09700 150.83955 8819 ft 286 kts 55°
2026-05-04 10:37 -34.08753 150.86054 8554 ft 288 kts 55°
2026-05-04 10:37 -34.07788 150.88191 8270 ft 288 kts 55°
2026-05-04 10:39 -34.03495 151.01317 6553 ft 302 kts 105°
2026-05-04 10:39 -34.04593 151.03485 6318 ft 300 kts 128°
2026-05-04 10:39 -34.05979 151.05299 6179 ft 290 kts 133°
2026-05-04 10:40 -34.07399 151.06933 6024 ft 280 kts 142°
2026-05-04 10:40 -34.09096 151.07985 5988 ft 270 kts 165°
2026-05-04 10:40 -34.10885 151.08538 5965 ft 263 kts 170°
2026-05-04 10:40 -34.12639 151.08983 5856 ft 255 kts 171°
2026-05-04 10:41 -34.14369 151.09412 5633 ft 250 kts 171°
2026-05-04 10:41 -34.16061 151.09836 5359 ft 251 kts 170°
2026-05-04 10:41 -34.17766 151.10269 5114 ft 249 kts 170°
2026-05-04 10:41 -34.19442 151.10700 4904 ft 246 kts 170°
2026-05-04 10:42 -34.21125 151.11137 4783 ft 247 kts 170°
2026-05-04 10:42 -34.22814 151.11577 4651 ft 247 kts 169°
2026-05-04 10:42 -34.24473 151.12012 4524 ft 246 kts 169°
2026-05-04 10:42 -34.26103 151.12656 4404 ft 246 kts 147°
2026-05-04 10:43 -34.27260 151.14083 4290 ft 237 kts 113°
2026-05-04 10:44 -34.24860 151.24265 3432 ft 195 kts 13°
2026-05-04 10:45 -34.23570 151.24716 3310 ft 188 kts
2026-05-04 10:45 -34.22344 151.24821 3216 ft 171 kts 354°
2026-05-04 10:45 -34.21172 151.24644 3093 ft 168 kts 347°
2026-05-04 10:45 -34.20043 151.24357 3021 ft 166 kts 345°
2026-05-04 10:46 -34.18911 151.24051 3008 ft 166 kts 346°
2026-05-04 10:46 -34.17792 151.23751 3011 ft 165 kts 345°
2026-05-04 10:46 -34.16667 151.23450 3008 ft 165 kts 346°
2026-05-04 10:46 -34.15555 151.23155 3015 ft 164 kts 346°
2026-05-04 10:47 -34.14513 151.22881 2988 ft 143 kts 346°
2026-05-04 10:47 -34.13605 151.22641 2988 ft 126 kts 346°
2026-05-04 10:47 -34.12769 151.22419 3000 ft 124 kts 346°
2026-05-04 10:47 -34.11927 151.22196 3016 ft 123 kts 346°
2026-05-04 10:49 -34.06109 151.20650 1958 ft 122 kts 348°
2026-05-04 10:49 -34.05293 151.20433 1823 ft 118 kts 350°
2026-05-04 10:50 -34.04504 151.20224 1658 ft 114 kts 349°
2026-05-04 10:51 -33.98960 151.18733 577 ft 113 kts 352°
2026-05-04 10:52 -33.98187 151.18538 415 ft 112 kts 352°
2026-05-04 10:52 -33.97433 151.18331 254 ft 112 kts 350°
2026-05-04 10:52 -33.96663 151.18130 102 ft 113 kts 348°
2026-05-04 10:54 -33.94270 151.17720 26 ft 14 kts 343°
2026-05-04 10:54 -33.94230 151.17704 26 ft 0 kts 344°
2026-05-04 10:56 -33.93995 151.17635 23 ft 0 kts 349°
2026-05-04 10:56 -33.93993 151.17634 23 ft 3 kts 349°
2026-05-04 10:56 -33.93958 151.17627 23 ft 6 kts 349°
2026-05-04 10:57 -33.93955 151.17626 24 ft 0 kts 349°
2026-05-04 10:57 -33.93929 151.17620 22 ft 15 kts 349°
2026-05-04 10:57 -33.93783 151.17579 22 ft 24 kts 350°
2026-05-04 10:57 -33.93662 151.17586 23 ft 0 kts 29°
2026-05-04 10:58 -33.93652 151.17639 32 ft 15 kts 94°
2026-05-04 10:59 -33.93668 151.17763 33 ft 15 kts 92°
2026-05-04 10:59 -33.93625 151.17818 34 ft 8 kts 11°
2026-05-04 10:59 -33.93563 151.17830 34 ft 10 kts
2026-05-04 10:59 -33.93501 151.17840 32 ft 6 kts 344°
2026-05-04 11:00 -33.93492 151.17813 34 ft 1 kts 273°
2026-05-04 11:01 -33.93488 151.17786 34 ft 0 kts 281°